sat.trackr.live / text

‹ back to catalog

ONEWEB-0149

NORAD 48058 · 2021-025S

PAYLOAD ACTIVE UNKNOWN

§ Identity

Operator
Country
UK
Launch date
2021-03-25
Launch site
VOSTO
Launch vehicle
Mass (kg)
RCS (m²)

Purposes: comms

External: N2YO · Heavens-Above · Gunter

§ Orbital elements

Epoch: 2026-05-25T00:01:08.533344Z

Period
109.63 min
Inclination
87.8950°
Eccentricity
0.0001984
Mean motion
13.13469391 rev/d
Perigee alt
1,208.3 km
Apogee alt
1,211.3 km
Semi-major
7,587.9 km
B*
-4.1697e-4
RAAN
324.8410°
Arg perigee
95.5479°
Mean anomaly
264.5877°
Rev number
25,044

§ Raw data

ONEWEB-01491 48058U 21025S   26145.00079321 -.00000140  00000+0 -41697-3 0  99912 48058  87.8950 324.8410 0001984  95.5479 264.5877 13.13469391250441

JSON: /api/v1/satellites/48058 · /tle

For live sub-satellite position, see the globe view (requires WebGL).

§ Visibility from observer

Set your observer location to see the next 7 days of passes ≥ 10°. The values pass through the URL so the page stays shareable.

No JS? Fill the form by hand. The geolocation button needs JavaScript.